Location: Bonny Doon Airfield
(37.0704°N, 122.1252°W)
Time: 18:39:07
(UTC-08:00)

OTV 5 (USA 277) - Pass Details

Date: 11 October 2017
Orbit: 404 x 417 km, 43.0° (Epoch: 07 September)

Event Time Altitude Azimuth Distance (km) Brightness Sun altitude
Rises 18:56:35 0° 237° (WSW) 2,342 ? -4.8°
Reaches altitude 10° 18:58:42 10° 235° (SW) 1,483 ? -5.2°
Maximum altitude 19:02:02 67° 152° (SSE) 452 ? -5.9°
Drops below altitude 10° 19:05:22 10° 69° (ENE) 1,488 ? -6.5°
Enters shadow 19:05:49 - 69° (ENE) 1,666 ? -6.6°
